[[{"header":{"parameterUnit":"m.s-1","parameterCategory":1,"la1":30.2991,"la2":30.254,"lo1":-89.0895,"lo2":-89.0444,"dy":0.0017,"dx":0.0017,"nx":28,"ny":28,"refTime":"2025-03-15T09:00:00:Z","depth":0,"parameterNumber":2,"parameterNumberName":"U-component_of_WINDS"},"data":[0,0,0,0,0,0,0,0,0,0,0,0,0,0,0,0,0,0,0,0,0,0,0,0,0,0,0,0,0,0,0,0,0,0,0,0,0,0,0,0,0,0,0,0,0,0,0,0,0,0,0,0,0,0,0,0,0,0,1.8566,1.8566,0,1.857,1.857,1.8571,1.8543,1.8542,1.8541,1.8541,1.8545,1.8545,1.8546,0,0,0,0,0,0,0,0,0,0,0,0,0,1.8535,1.8536,1.8566,1.8566,1.8567,1.857,1.857,1.8571,1.8543,1.8542,1.8541,1.854,1.8544,1.8545,1.8546,0,0,0,0,0,0,0,0,0,0,0,0,0,1.8545,1.8536,1.8566,1.8553,1.8552,1.857,1.857,1.8571,1.8543,1.8542,1.8541,1.854,1.8544,1.8545,1.8546,1.8577,0,0,1.855,1.8551,0,0,0,0,0,0,0,0,1.8545,1.8546,1.8555,1.8554,1.8553,1.8555,1.8561,1.8573,1.8544,1.8547,1.8541,1.8539,1.8549,1.855,1.8553,1.8577,1.8578,1.855,1.8551,1.8552,1.8552,0,0,0,0,0,0,0,1.8544,1.8546,1.8568,1.8555,1.8554,1.8547,1.8547,1.8563,1.8554,1.8546,1.8544,1.8545,1.8548,1.8552,1.8553,1.8578,1.855,1.8551,1.8552,1.8553,1.8628,1.863,0,0,0,0,0,0,1.8545,1.8545,1.8568,1.8568,1.8546,1.8549,1.8549,1.8556,1.8554,1.8553,1.8546,1.8544,1.855,1.8551,1.8553,1.8589,1.8552,1.8553,1.8553,1.8627,1.8629,1.863,0,0,0,0,0,0,1.8544,1.8547,1.8568,1.8556,1.8558,1.8551,1.8558,1.8556,1.856,1.8554,1.8552,1.8552,1.8549,1.8551,1.8572,1.8589,1.8553,1.8554,1.8626,1.8628,1.8629,1.8662,0,0,0,0,0,0,1.8544,1.8547,1.8559,1.8557,1.8559,1.8586,1.8559,1.8557,1.8562,1.8559,1.8559,1.8557,1.8549,1.857,1.8573,1.859,1.8555,1.8624,1.8626,1.8629,1.8659,1.8664,1.8669,0,0,0,0,0,1.8543,1.8567,1.8559,1.8562,1.8573,1.8587,1.8589,1.8578,1.8564,1.8575,1.8572,1.8557,1.8587,1.8572,1.8575,1.8593,1.8623,1.8626,1.8629,1.8657,1.8663,1.8669,0,0,0,0,0,0,1.8571,1.8567,1.8558,1.8583,1.8586,1.8583,1.8597,1.8585,1.8592,1.8589,1.8576,1.8576,1.8599,1.8598,1.8582,1.8623,1.8602,1.8606,1.8623,1.8629,1.8634,1.8633,1.8556,0,0,0,0,0,1.858,1.8592,1.8588,1.861,1.8612,1.8604,1.861,1.8602,1.8604,1.8605,1.8603,1.8606,1.8616,1.8622,1.8631,1.8659,1.8659,1.8673,1.8678,1.8682,1.8685,1.87,1.8706,1.8639,1.8639,1.8639,0,0,1.8599,1.8598,1.8607,1.8616,1.8617,1.863,1.8605,1.8619,1.8629,1.8607,1.8626,1.8625,1.8627,1.8652,1.8663,1.8652,1.8704,1.8686,1.8689,1.869,1.8704,1.871,1.8716,1.8641,1.8641,1.8641,0,0,1.864,1.8641,1.866,1.8662,1.8664,1.8659,1.8664,1.8663,1.8661,1.868,1.8664,1.8675,1.8693,1.8695,1.8698,1.8742,1.8729,1.8745,1.8771,1.8786,1.8791,1.8796,1.8811,1.8817,1.8748,1.8749,1.8749,0,1.8663,1.8681,1.8671,1.8686,1.8691,1.8673,1.8692,1.8694,1.8699,1.8703,1.8691,1.8713,1.8713,1.8738,1.8749,1.8753,1.8757,1.8745,1.8791,1.8796,1.88,1.8814,1.882,1.875,1.875,1.875,1.875,0,1.871,1.8723,1.8738,1.8743,1.875,1.8767,1.8759,1.8767,1.8759,1.8755,1.8775,1.8775,1.8784,1.8789,1.8781,1.8813,1.8807,1.8794,1.8772,1.8808,1.8822,1.8827,1.8753,1.8752,1.8752,1.8751,0,0,1.8767,1.8768,1.8773,1.8776,1.8778,1.8788,1.8804,1.8813,1.882,1.8825,1.8838,1.8854,1.8842,1.8846,1.8839,1.8852,1.8886,1.8837,1.8837,1.8845,1.8921,1.8931,1.8937,1.8878,1.8879,1.888,1.8921,0,1.8806,1.8835,1.8826,1.8855,1.8867,1.8851,1.8865,1.8868,1.8866,1.8875,1.8873,1.8884,1.8867,1.887,1.8882,1.8879,1.8901,1.8876,1.889,1.8891,1.8889,1.8944,1.8954,1.8992,1.8926,1.8927,1.8928,0,1.8856,1.8863,1.8893,1.8893,1.8898,1.8911,1.8919,1.8929,1.8932,1.8929,1.8935,1.8925,1.8941,1.8921,1.8944,1.8927,1.8933,1.8932,1.8934,1.8934,1.8911,1.8945,1.9004,1.901,1.8936,1.8935,1.8934,0,1.8894,1.8911,1.8931,1.8934,1.8935,1.8945,1.8946,1.8949,1.8955,1.8962,1.8965,1.8974,1.8979,1.8986,1.8979,1.8965,1.9003,1.8982,1.9001,1.9001,1.9009,1.9008,1.9069,1.9014,1.9014,1.9014,1.9014,0,1.8938,1.8957,1.8948,1.8961,1.8981,1.8972,1.8993,1.8992,1.8995,1.9007,1.8994,1.9005,1.8995,1.9006,1.9001,1.9021,1.9023,1.9021,1.9019,1.9022,1.9022,1.9024,1.9021,1.9015,1.9015,1.9015,1.9014,0,1.8984,1.8979,1.9,1.9,1.9,1.9016,1.9016,1.9027,1.9024,1.904,1.9043,1.9038,1.905,1.9044,1.9057,1.9053,1.9079,1.9074,1.9077,1.9076,1.9095,1.9093,1.9159,1.9167,1.9107,1.9108,1.9108,0,1.9012,1.9026,1.9028,1.9036,1.9038,1.9049,1.9056,1.9048,1.9055,1.906,1.9071,1.9082,1.9091,1.9111,1.9109,1.9118,1.9113,1.9136,1.9114,1.9117,1.9113,1.9112,1.9113,1.9139,1.914,1.9141,1.9141,0,1.9063,1.906,1.9069,1.9079,1.9087,1.9093,1.9099,1.9106,1.9098,1.9107,1.9119,1.9126,1.9139,1.915,1.9159,1.916,1.9149,1.9148,1.9153,1.9155,1.9157,1.9156,1.9088,1.9146,1.9146,1.9145,1.9145,1.9145,1.91,1.9112,1.9115,1.9127,1.913,1.9136,1.9147,1.9146,1.9156,1.9166,1.9161,1.9176,1.918,1.919,1.9193,1.9205,1.9196,1.9203,1.9204,1.9206,1.9208,1.9156,1.9206,1.9206,1.9206,1.9206,1.9206,0,1.9149,1.9151,1.9162,1.917,1.9179,1.9169,1.9175,1.9184,1.9197,1.9201,1.921,1.9225,1.9236,1.9235,1.9246,1.9255,1.925,1.9258,1.9256,1.9257,1.9216,1.921,1.9261,1.9261,1.9261,1.9261,1.9261,1.9261,1.9176,1.9195,1.9193,1.9215,1.9216,1.9231,1.9235,1.924,1.9244,1.9261,1.9271,1.927,1.9273,1.9283,1.9293,1.9293,1.9297,1.9306,1.9304,1.9265,1.926,1.9254,1.9249,1.9307,1.9308,1.9344,1.9344,1.9344]},{"header":{"parameterUnit":"m.s-1","parameterCategory":1,"la1":30.2991,"la2":30.254,"lo1":-89.0895,"lo2":-89.0444,"dy":0.0017,"dx":0.0017,"nx":28,"ny":28,"refTime":"2025-03-15T09:00:00:Z","depth":0,"parameterNumber":3,"parameterNumberName":"V-component_of_WINDS"},"data":[0,0,0,0,0,0,0,0,0,0,0,0,0,0,0,0,0,0,0,0,0,0,0,0,0,0,0,0,0,0,0,0,0,0,0,0,0,0,0,0,0,0,0,0,0,0,0,0,0,0,0,0,0,0,0,0,0,0,-5.8315,-5.8317,0,-5.8594,-5.8597,-5.86,-5.8581,-5.8576,-5.8572,-5.8568,-5.8856,-5.8867,-5.8878,0,0,0,0,0,0,0,0,0,0,0,0,0,-5.7765,-5.7776,-5.8314,-5.8318,-5.8321,-5.8593,-5.8597,-5.8601,-5.8581,-5.8576,-5.8571,-5.8566,-5.8852,-5.8865,-5.8879,0,0,0,0,0,0,0,0,0,0,0,0,0,-5.802,-5.7779,-5.8314,-5.8344,-5.835,-5.8593,-5.8597,-5.8602,-5.8582,-5.8576,-5.857,-5.8564,-5.8847,-5.8864,-5.8881,-5.9112,0,0,-5.8934,-5.8941,0,0,0,0,0,0,0,0,-5.8006,-5.804,-5.8336,-5.8342,-5.8349,-5.8546,-5.8509,-5.8773,-5.8584,-5.8494,-5.8568,-5.8561,-5.8758,-5.8782,-5.8848,-5.9126,-5.9138,-5.8936,-5.8946,-5.8953,-5.8958,0,0,0,0,0,0,0,-5.7988,-5.8028,-5.8425,-5.834,-5.8348,-5.8345,-5.8374,-5.8559,-5.8657,-5.8501,-5.8501,-5.8534,-5.876,-5.8832,-5.8855,-5.9142,-5.8935,-5.895,-5.8961,-5.8968,-5.9627,-5.9633,0,0,0,0,0,0,-5.7963,-5.8014,-5.8416,-5.8433,-5.8159,-5.8359,-5.8392,-5.8489,-5.8655,-5.8675,-5.8539,-5.8532,-5.8805,-5.8835,-5.8865,-5.9149,-5.8953,-5.8969,-5.8979,-5.962,-5.9628,-5.9636,0,0,0,0,0,0,-5.7952,-5.8,-5.8405,-5.8224,-5.8275,-5.8376,-5.8484,-5.8498,-5.8569,-5.8684,-5.8701,-5.8594,-5.8801,-5.884,-5.9052,-5.9158,-5.8977,-5.8993,-5.9611,-5.9622,-5.9632,-5.9717,0,0,0,0,0,0,-5.7936,-5.7995,-5.8084,-5.8226,-5.8285,-5.8587,-5.8491,-5.8508,-5.8599,-5.8593,-5.874,-5.8758,-5.8799,-5.9026,-5.9069,-5.9179,-5.9006,-5.9602,-5.9616,-5.9629,-5.9705,-5.9729,-5.975,0,0,0,0,0,-5.7917,-5.8096,-5.8088,-5.8137,-5.8397,-5.8593,-5.8626,-5.867,-5.8608,-5.8698,-5.8772,-5.8754,-5.9139,-5.9048,-5.9096,-5.9213,-5.9596,-5.9612,-5.9628,-5.9695,-5.9724,-5.9749,0,0,0,0,0,0,-5.7964,-5.8115,-5.8108,-5.8339,-5.8453,-5.8589,-5.8704,-5.8699,-5.8834,-5.8822,-5.887,-5.8904,-5.9117,-5.9185,-5.9081,-5.9446,-5.9359,-5.9386,-5.9394,-5.9423,-5.9445,-5.9425,-5.9021,0,0,0,0,0,-5.8002,-5.8147,-5.8271,-5.8463,-5.8521,-5.8603,-5.8689,-5.8713,-5.8834,-5.8882,-5.8971,-5.9089,-5.9237,-5.9333,-5.9475,-5.9714,-5.9747,-5.9818,-5.9841,-5.9858,-5.9882,-6.0015,-6.0049,-5.9689,-5.9689,-5.9688,0,0,-5.808,-5.8181,-5.827,-5.8475,-5.8567,-5.8718,-5.8643,-5.8806,-5.8919,-5.8907,-5.9112,-5.9182,-5.9316,-5.9543,-5.9647,-5.9607,-5.9988,-5.9879,-5.9892,-5.9906,-6.0035,-6.0069,-6.01,-5.97,-5.9698,-5.9696,0,0,-5.8302,-5.8391,-5.8562,-5.8655,-5.8794,-5.8848,-5.8889,-5.9026,-5.9072,-5.9279,-5.9274,-5.9409,-5.9662,-5.9759,-5.9841,-6.0101,-6.009,-6.0146,-6.0264,-6.0393,-6.0422,-6.0447,-6.0543,-6.0576,-6.0168,-6.0168,-6.0168,0,-5.8382,-5.8609,-5.865,-5.8815,-5.8907,-5.8902,-5.9077,-5.9165,-5.9344,-5.9407,-5.9359,-5.9678,-5.9769,-6.0019,-6.0083,-6.0149,-6.0199,-6.013,-6.0414,-6.044,-6.0465,-6.0556,-6.0591,-6.0174,-6.0173,-6.0173,-6.0172,0,-5.8702,-5.886,-5.8981,-5.9154,-5.9259,-5.9428,-5.9496,-5.9597,-5.9612,-5.9671,-5.9882,-5.9991,-6.0156,-6.0217,-6.0232,-6.0471,-6.0441,-6.0403,-6.0317,-6.0504,-6.0591,-6.0626,-6.0183,-6.0181,-6.0179,-6.0177,0,0,-5.8962,-5.9157,-5.9201,-5.9281,-5.9434,-5.9557,-5.9726,-5.9888,-5.9975,-6.0098,-6.0242,-6.0457,-6.0424,-6.0517,-6.0544,-6.0658,-6.086,-6.0606,-6.061,-6.0652,-6.1132,-6.1161,-6.1201,-6.0852,-6.0859,-6.0865,-6.1121,0,-5.9201,-5.95,-5.9543,-5.9808,-5.9955,-5.9954,-6.0101,-6.0212,-6.0272,-6.0406,-6.0471,-6.0624,-6.0567,-6.0624,-6.0736,-6.0811,-6.0957,-6.0793,-6.0989,-6.0996,-6.0958,-6.1246,-6.1277,-6.1514,-6.1155,-6.1161,-6.1165,0,-5.952,-5.9653,-5.9932,-6.0068,-6.0131,-6.0263,-6.0415,-6.0543,-6.0669,-6.0705,-6.081,-6.0823,-6.1,-6.0905,-6.115,-6.1037,-6.112,-6.1169,-6.1179,-6.1201,-6.1093,-6.1278,-6.1591,-6.1627,-6.1218,-6.1214,-6.121,0,-5.9684,-5.9933,-6.0133,-6.0201,-6.0363,-6.0456,-6.0528,-6.0648,-6.0743,-6.0877,-6.0939,-6.1091,-6.1175,-6.1293,-6.1347,-6.1273,-6.159,-6.1499,-6.1626,-6.1625,-6.1695,-6.169,-6.2028,-6.1744,-6.1743,-6.1743,-6.1742,0,-5.9948,-6.012,-6.0209,-6.0333,-6.0526,-6.0573,-6.0763,-6.0832,-6.094,-6.1077,-6.1084,-6.1214,-6.1276,-6.1415,-6.1459,-6.1656,-6.1693,-6.1728,-6.1738,-6.173,-6.1726,-6.1786,-6.1772,-6.1752,-6.175,-6.1748,-6.1747,0,-6.0165,-6.0232,-6.045,-6.0586,-6.0625,-6.0761,-6.0878,-6.0999,-6.1057,-6.1231,-6.1275,-6.1368,-6.1532,-6.1597,-6.1798,-6.1827,-6.2056,-6.2051,-6.2013,-6.2017,-6.2142,-6.213,-6.2532,-6.2589,-6.2265,-6.2268,-6.227,0,-6.033,-6.0463,-6.0613,-6.0706,-6.0781,-6.093,-6.1027,-6.1079,-6.1181,-6.1336,-6.1438,-6.1602,-6.1736,-6.1999,-6.2085,-6.2239,-6.224,-6.237,-6.2263,-6.2251,-6.2245,-6.2238,-6.2252,-6.239,-6.2394,-6.2396,-6.2398,0,-6.0617,-6.0644,-6.0783,-6.0936,-6.1052,-6.1174,-6.1294,-6.1369,-6.144,-6.1554,-6.1722,-6.1826,-6.2032,-6.2195,-6.2354,-6.2429,-6.2428,-6.2431,-6.247,-6.2463,-6.2437,-6.2455,-6.207,-6.2422,-6.242,-6.2418,-6.2417,-6.2416,-6.0815,-6.0934,-6.1059,-6.1215,-6.131,-6.1422,-6.1542,-6.1616,-6.1757,-6.1929,-6.1951,-6.2132,-6.2257,-6.247,-6.2552,-6.2695,-6.2661,-6.2716,-6.273,-6.2744,-6.2754,-6.2412,-6.2724,-6.2723,-6.2723,-6.2722,-6.2722,0,-6.1105,-6.1185,-6.1328,-6.1495,-6.1619,-6.1604,-6.1736,-6.1841,-6.2,-6.2116,-6.2248,-6.2443,-6.2602,-6.27,-6.286,-6.2956,-6.296,-6.2997,-6.2992,-6.301,-6.2773,-6.2725,-6.2992,-6.2992,-6.2992,-6.2992,-6.2992,-6.2991,-6.127,-6.147,-6.1512,-6.176,-6.184,-6.2017,-6.2094,-6.2198,-6.2291,-6.2508,-6.264,-6.2703,-6.2813,-6.2982,-6.3128,-6.3152,-6.3212,-6.3253,-6.3276,-6.3054,-6.3026,-6.2999,-6.2955,-6.3265,-6.3265,-6.3501,-6.3503,-6.3504]}]]